Year,Month,Day,Hour,Minute,Value (Times are PST for windspeed in km/hr)
2012,03,12,00,00,18.70
2012,03,12,00,01,16.30
2012,03,12,00,02,18.20
2012,03,12,00,03,11.30
2012,03,12,00,04,20.30
2012,03,12,00,05,19.20
2012,03,12,00,06,18.00
2012,03,12,00,07,18.60
2012,03,12,00,08,13.00
2012,03,12,00,09,17.50
2012,03,12,00,10,11.30
2012,03,12,00,11,21.30
2012,03,12,00,12,22.10
2012,03,12,00,13,25.70
2012,03,12,00,14,22.30
2012,03,12,00,15,24.90
2012,03,12,00,16,15.70
2012,03,12,00,17,15.60
2012,03,12,00,18,20.80
2012,03,12,00,19,12.30
2012,03,12,00,20,14.50
2012,03,12,00,21,20.20
2012,03,12,00,22,20.80
2012,03,12,00,23,20.30
2012,03,12,00,24,19.30
2012,03,12,00,25,22.50
2012,03,12,00,26,19.70
2012,03,12,00,27,18.20
2012,03,12,00,28,21.30
2012,03,12,00,29,18.90
2012,03,12,00,30,23.70
2012,03,12,00,31,17.10
2012,03,12,00,32,13.90
2012,03,12,00,33,19.40
2012,03,12,00,34,23.80
2012,03,12,00,35,26.40
2012,03,12,00,36,16.80
2012,03,12,00,37,21.20
2012,03,12,00,38,16.10
2012,03,12,00,39,22.10
2012,03,12,00,40,22.40
2012,03,12,00,41,19.00
2012,03,12,00,42,16.00
2012,03,12,00,43,10.20
2012,03,12,00,44,11.30
2012,03,12,00,45,12.30
2012,03,12,00,46,15.50
2012,03,12,00,47,19.30
2012,03,12,00,48,25.10
2012,03,12,00,49,19.20
2012,03,12,00,50,22.90
2012,03,12,00,51,25.40
2012,03,12,00,52,18.70
2012,03,12,00,53,14.10
2012,03,12,00,54,17.00
2012,03,12,00,55,25.10
2012,03,12,00,56,20.60
2012,03,12,00,57,18.80
2012,03,12,00,58,14.10
2012,03,12,00,59,17.10
2012,03,12,01,00,21.30
2012,03,12,01,01,20.00
2012,03,12,01,02,20.00
2012,03,12,01,03,19.20
2012,03,12,01,04,15.80
2012,03,12,01,05,15.30
2012,03,12,01,06,15.70
2012,03,12,01,07,22.50
2012,03,12,01,08,14.80
2012,03,12,01,09,18.30
2012,03,12,01,10,17.50
2012,03,12,01,11,19.60
2012,03,12,01,12,13.10
2012,03,12,01,13,17.50
2012,03,12,01,14,16.70
2012,03,12,01,15,19.00
2012,03,12,01,16,23.70
2012,03,12,01,17,17.30
2012,03,12,01,18,23.50
2012,03,12,01,19,22.60
2012,03,12,01,20,19.70
2012,03,12,01,21,15.90
2012,03,12,01,22,26.40
2012,03,12,01,23,18.30
2012,03,12,01,24,22.70
2012,03,12,01,25,21.40
2012,03,12,01,26,22.00
2012,03,12,01,27,13.10
2012,03,12,01,28,19.30
2012,03,12,01,29,22.10
2012,03,12,01,30,21.70
2012,03,12,01,31,18.10
2012,03,12,01,32,25.50
2012,03,12,01,33,19.60
2012,03,12,01,34,24.50
2012,03,12,01,35,14.20
2012,03,12,01,36,23.80
2012,03,12,01,37,15.50
2012,03,12,01,38,19.70
2012,03,12,01,39,15.20
2012,03,12,01,40,18.20
2012,03,12,01,41,24.10
2012,03,12,01,42,17.60
2012,03,12,01,43,16.40
2012,03,12,01,44,27.70
2012,03,12,01,45,25.40
2012,03,12,01,46,18.20
2012,03,12,01,47,30.70
2012,03,12,01,48,26.00
2012,03,12,01,49,26.50
2012,03,12,01,50,21.40
2012,03,12,01,51,25.80
2012,03,12,01,52,19.60
2012,03,12,01,53,21.60
2012,03,12,01,54,26.60
2012,03,12,01,55,26.20
2012,03,12,01,56,29.00
2012,03,12,01,57,20.00
2012,03,12,01,58,15.70
2012,03,12,01,59,21.80
2012,03,12,02,00,15.50
2012,03,12,02,01,22.10
2012,03,12,02,02,28.10
2012,03,12,02,03,30.70
2012,03,12,02,04,22.60
2012,03,12,02,05,15.90
2012,03,12,02,06,22.30
2012,03,12,02,07,32.40
2012,03,12,02,08,23.40
2012,03,12,02,09,22.70
2012,03,12,02,10,23.70
2012,03,12,02,11,24.80
2012,03,12,02,12,22.10
2012,03,12,02,13,21.60
2012,03,12,02,14,19.50
2012,03,12,02,15,24.60
2012,03,12,02,16,24.50
2012,03,12,02,17,28.60
2012,03,12,02,18,22.60
2012,03,12,02,19,24.10
2012,03,12,02,20,16.90
2012,03,12,02,21,25.80
2012,03,12,02,22,21.80
2012,03,12,02,23,24.10
2012,03,12,02,24,13.60
2012,03,12,02,25,19.10
2012,03,12,02,26,19.10
2012,03,12,02,27,18.10
2012,03,12,02,28,27.40
2012,03,12,02,29,27.40
2012,03,12,02,30,31.30
2012,03,12,02,31,26.10
2012,03,12,02,32,28.00
2012,03,12,02,33,34.20
2012,03,12,02,34,23.30
2012,03,12,02,35,17.40
2012,03,12,02,36,11.60
2012,03,12,02,37,22.00
2012,03,12,02,38,28.50
2012,03,12,02,39,22.20
2012,03,12,02,40,26.20
2012,03,12,02,41,25.80
2012,03,12,02,42,24.50
2012,03,12,02,43,33.70
2012,03,12,02,44,23.50
2012,03,12,02,45,23.30
2012,03,12,02,46,28.80
2012,03,12,02,47,23.60
2012,03,12,02,48,21.50
2012,03,12,02,49,24.90
2012,03,12,02,50,22.40
2012,03,12,02,51,29.60
2012,03,12,02,52,24.40
2012,03,12,02,53,26.00
2012,03,12,02,54,22.30
2012,03,12,02,55,33.40
2012,03,12,02,56,21.30
2012,03,12,02,57,15.70
2012,03,12,02,58,14.00
2012,03,12,02,59,15.80
2012,03,12,03,00,26.50
2012,03,12,03,01,25.10
2012,03,12,03,02,25.70
2012,03,12,03,03,20.30
2012,03,12,03,04,30.30
2012,03,12,03,05,24.50
2012,03,12,03,06,23.20
2012,03,12,03,07,26.40
2012,03,12,03,08,30.50
2012,03,12,03,09,29.50
2012,03,12,03,10,19.30
2012,03,12,03,11,32.40
2012,03,12,03,12,21.10
2012,03,12,03,13,18.90
2012,03,12,03,14,22.50
2012,03,12,03,15,23.70
2012,03,12,03,16,29.20
2012,03,12,03,17,29.10
2012,03,12,03,18,21.20
2012,03,12,03,19,20.60
2012,03,12,03,20,31.90
2012,03,12,03,21,36.30
2012,03,12,03,22,26.00
2012,03,12,03,23,33.60
2012,03,12,03,24,29.40
2012,03,12,03,25,29.90
2012,03,12,03,26,26.30
2012,03,12,03,27,14.80
2012,03,12,03,28,22.50
2012,03,12,03,29,27.40
2012,03,12,03,30,34.60
2012,03,12,03,31,23.90
2012,03,12,03,32,31.40
2012,03,12,03,33,28.70
2012,03,12,03,34,26.30
2012,03,12,03,35,39.20
2012,03,12,03,36,41.00
2012,03,12,03,37,29.40
2012,03,12,03,38,36.20
2012,03,12,03,39,25.70
2012,03,12,03,40,23.20
2012,03,12,03,41,20.60
2012,03,12,03,42,38.90
2012,03,12,03,43,26.50
2012,03,12,03,44,28.30
2012,03,12,03,45,29.10
2012,03,12,03,46,35.50
2012,03,12,03,47,37.90
2012,03,12,03,48,21.20
2012,03,12,03,49,21.70
2012,03,12,03,50,28.30
2012,03,12,03,51,31.20
2012,03,12,03,52,32.50
2012,03,12,03,53,27.80
2012,03,12,03,54,28.50
2012,03,12,03,55,28.90
2012,03,12,03,56,38.90
2012,03,12,03,57,27.40
2012,03,12,03,58,34.40
2012,03,12,03,59,22.90
2012,03,12,04,00,36.20
2012,03,12,04,01,31.30
2012,03,12,04,02,35.70
2012,03,12,04,03,23.70
2012,03,12,04,04,33.90
2012,03,12,04,05,24.60
2012,03,12,04,06,24.40
2012,03,12,04,07,26.60
2012,03,12,04,08,27.40
2012,03,12,04,09,38.50
2012,03,12,04,10,33.60
2012,03,12,04,11,43.90
2012,03,12,04,12,26.30
2012,03,12,04,13,27.40
2012,03,12,04,14,25.90
2012,03,12,04,15,36.00
2012,03,12,04,16,36.30
2012,03,12,04,17,33.50
2012,03,12,04,18,35.10
2012,03,12,04,19,34.70
2012,03,12,04,20,27.80
2012,03,12,04,21,38.50
2012,03,12,04,22,33.60
2012,03,12,04,23,40.70
2012,03,12,04,24,24.40
2012,03,12,04,25,41.80
2012,03,12,04,26,37.50
2012,03,12,04,27,31.30
2012,03,12,04,28,38.50
2012,03,12,04,29,40.00
2012,03,12,04,30,36.60
2012,03,12,04,31,38.10
2012,03,12,04,32,38.50
2012,03,12,04,33,32.70
2012,03,12,04,34,29.00
2012,03,12,04,35,36.20
2012,03,12,04,36,34.20
2012,03,12,04,37,25.60
2012,03,12,04,38,24.60
2012,03,12,04,39,24.50
2012,03,12,04,40,34.00
2012,03,12,04,41,36.50
2012,03,12,04,42,35.20
2012,03,12,04,43,31.50
2012,03,12,04,44,33.50
2012,03,12,04,45,29.30
2012,03,12,04,46,32.70
2012,03,12,04,47,33.80
2012,03,12,04,48,32.80
2012,03,12,04,49,38.70
2012,03,12,04,50,26.60
2012,03,12,04,51,36.40
2012,03,12,04,52,34.50
2012,03,12,04,53,32.20
2012,03,12,04,54,33.70
2012,03,12,04,55,21.20
2012,03,12,04,56,35.60
2012,03,12,04,57,36.60
2012,03,12,04,58,39.50
2012,03,12,04,59,26.60
2012,03,12,05,00,33.10
2012,03,12,05,01,40.10
2012,03,12,05,02,27.60
2012,03,12,05,03,19.60
2012,03,12,05,04,32.30
2012,03,12,05,05,33.20
2012,03,12,05,06,30.60
2012,03,12,05,07,32.80
2012,03,12,05,08,27.30
2012,03,12,05,09,29.40
2012,03,12,05,10,30.20
2012,03,12,05,11,25.10
2012,03,12,05,12,36.50
2012,03,12,05,13,33.40
2012,03,12,05,14,34.60
2012,03,12,05,15,23.00
2012,03,12,05,16,28.90
2012,03,12,05,17,31.10
2012,03,12,05,18,33.70
2012,03,12,05,19,34.90
2012,03,12,05,20,37.40
2012,03,12,05,21,40.30
2012,03,12,05,22,36.80
2012,03,12,05,23,37.30
2012,03,12,05,24,32.20
2012,03,12,05,25,27.70
2012,03,12,05,26,28.10
2012,03,12,05,27,36.00
2012,03,12,05,28,35.20
2012,03,12,05,29,28.20
2012,03,12,05,30,30.70
2012,03,12,05,31,32.40
2012,03,12,05,32,37.60
2012,03,12,05,33,34.40
2012,03,12,05,34,35.20
2012,03,12,05,35,28.40
2012,03,12,05,36,34.50
2012,03,12,05,37,37.90
2012,03,12,05,38,36.80
2012,03,12,05,39,35.40
2012,03,12,05,40,46.30
2012,03,12,05,41,32.30
2012,03,12,05,42,41.00
2012,03,12,05,43,33.20
2012,03,12,05,44,33.10
2012,03,12,05,45,30.10
2012,03,12,05,46,40.70
2012,03,12,05,47,29.00
2012,03,12,05,48,30.20
2012,03,12,05,49,30.30
2012,03,12,05,50,28.70
2012,03,12,05,51,36.60
2012,03,12,05,52,40.20
2012,03,12,05,53,34.80
2012,03,12,05,54,28.50
2012,03,12,05,55,34.20
2012,03,12,05,56,35.70
2012,03,12,05,57,38.80
2012,03,12,05,58,39.20
2012,03,12,05,59,37.00
2012,03,12,06,00,31.80
2012,03,12,06,01,35.20
2012,03,12,06,02,31.60
2012,03,12,06,03,35.90
2012,03,12,06,04,31.90
2012,03,12,06,05,42.60
2012,03,12,06,06,39.60
2012,03,12,06,07,41.20
2012,03,12,06,08,31.40
2012,03,12,06,09,32.40
2012,03,12,06,10,36.30
2012,03,12,06,11,26.20
2012,03,12,06,12,22.40
2012,03,12,06,13,36.50
2012,03,12,06,14,36.00
2012,03,12,06,15,41.00
2012,03,12,06,16,34.40
2012,03,12,06,17,31.40
2012,03,12,06,18,32.50
2012,03,12,06,19,42.90
2012,03,12,06,20,25.70
2012,03,12,06,21,31.80
2012,03,12,06,22,28.60
2012,03,12,06,23,39.30
2012,03,12,06,24,31.20
2012,03,12,06,25,33.60
2012,03,12,06,26,40.20
2012,03,12,06,27,38.90
2012,03,12,06,28,40.00
2012,03,12,06,29,39.00
2012,03,12,06,30,40.20
2012,03,12,06,31,40.30
2012,03,12,06,32,36.40
2012,03,12,06,33,34.90
2012,03,12,06,34,33.40
2012,03,12,06,35,38.00
2012,03,12,06,36,40.00
2012,03,12,06,37,43.10
2012,03,12,06,38,40.90
2012,03,12,06,39,36.90
2012,03,12,06,40,28.60
2012,03,12,06,41,30.70
2012,03,12,06,42,33.50
2012,03,12,06,43,28.80
2012,03,12,06,44,21.30
2012,03,12,06,45,38.30
2012,03,12,06,46,30.90
2012,03,12,06,47,45.70
2012,03,12,06,48,44.60
2012,03,12,06,49,34.80
2012,03,12,06,50,32.90
2012,03,12,06,51,32.80
2012,03,12,06,52,27.80
2012,03,12,06,53,28.30
2012,03,12,06,54,40.10
2012,03,12,06,55,32.50
2012,03,12,06,56,32.60
2012,03,12,06,57,31.20
2012,03,12,06,58,38.40
2012,03,12,06,59,31.60
2012,03,12,07,00,29.30
2012,03,12,07,01,36.50
2012,03,12,07,02,38.10
2012,03,12,07,03,43.50
2012,03,12,07,04,35.50
2012,03,12,07,05,48.00
2012,03,12,07,06,40.70
2012,03,12,07,07,35.10
2012,03,12,07,08,34.00
2012,03,12,07,09,45.30
2012,03,12,07,10,36.80
2012,03,12,07,11,44.80
2012,03,12,07,12,33.90
2012,03,12,07,13,36.90
2012,03,12,07,14,40.40
2012,03,12,07,15,23.60
2012,03,12,07,16,37.70
2012,03,12,07,17,27.20
2012,03,12,07,18,34.10
2012,03,12,07,19,36.50
2012,03,12,07,20,39.90
2012,03,12,07,21,33.60
2012,03,12,07,22,21.60
2012,03,12,07,23,26.80
2012,03,12,07,24,32.60
2012,03,12,07,25,26.30
2012,03,12,07,26,36.90
2012,03,12,07,27,30.30
2012,03,12,07,28,21.20
2012,03,12,07,29,27.70
2012,03,12,07,30,36.40
2012,03,12,07,31,47.80
2012,03,12,07,32,40.70
2012,03,12,07,33,41.40
2012,03,12,07,34,44.80
2012,03,12,07,35,32.40
2012,03,12,07,36,37.70
2012,03,12,07,37,31.50
2012,03,12,07,38,28.70
2012,03,12,07,39,42.20
2012,03,12,07,40,32.90
2012,03,12,07,41,37.40
2012,03,12,07,42,38.00
2012,03,12,07,43,41.40
2012,03,12,07,44,30.70
2012,03,12,07,45,39.40
2012,03,12,07,46,32.70
2012,03,12,07,47,33.20
2012,03,12,07,48,30.80
2012,03,12,07,49,31.40
2012,03,12,07,50,38.90
2012,03,12,07,51,45.50
2012,03,12,07,52,38.70
2012,03,12,07,53,31.90
2012,03,12,07,54,46.00
2012,03,12,07,55,32.70
2012,03,12,07,56,34.00
2012,03,12,07,57,36.50
2012,03,12,07,58,34.80
2012,03,12,07,59,37.00
2012,03,12,08,00,34.30
2012,03,12,08,01,45.80
2012,03,12,08,02,46.50
2012,03,12,08,03,52.10
2012,03,12,08,04,35.50
2012,03,12,08,05,34.30
2012,03,12,08,06,36.80
2012,03,12,08,07,34.00
2012,03,12,08,08,36.90
2012,03,12,08,09,41.40
2012,03,12,08,10,45.70
2012,03,12,08,11,34.30
2012,03,12,08,12,26.10
2012,03,12,08,13,32.00
2012,03,12,08,14,33.60
2012,03,12,08,15,32.70
2012,03,12,08,16,36.90
2012,03,12,08,17,45.20
2012,03,12,08,18,41.80
2012,03,12,08,19,32.60
2012,03,12,08,20,41.50
2012,03,12,08,21,34.90
2012,03,12,08,22,36.00
2012,03,12,08,23,36.10
2012,03,12,08,24,41.60
2012,03,12,08,25,32.30
2012,03,12,08,26,32.80
2012,03,12,08,27,30.60
2012,03,12,08,28,35.10
2012,03,12,08,29,39.10
2012,03,12,08,30,30.80
2012,03,12,08,31,31.90
2012,03,12,08,32,35.20
2012,03,12,08,33,34.00
2012,03,12,08,34,24.40
2012,03,12,08,35,45.00
2012,03,12,08,36,28.50
2012,03,12,08,37,29.50
2012,03,12,08,38,43.90
2012,03,12,08,39,28.10
2012,03,12,08,40,30.70
2012,03,12,08,41,31.50
2012,03,12,08,42,44.70
2012,03,12,08,43,36.70
2012,03,12,08,44,28.90
2012,03,12,08,45,36.00
2012,03,12,08,46,28.40
2012,03,12,08,47,33.50
2012,03,12,08,48,41.60
2012,03,12,08,49,42.30
2012,03,12,08,50,39.00
2012,03,12,08,51,28.30
2012,03,12,08,52,43.20
2012,03,12,08,53,46.40
2012,03,12,08,54,34.90
2012,03,12,08,55,30.30
2012,03,12,08,56,45.50
2012,03,12,08,57,36.90
2012,03,12,08,58,37.30
2012,03,12,08,59,43.00
2012,03,12,09,00,40.70
2012,03,12,09,01,36.20
2012,03,12,09,02,45.10
2012,03,12,09,03,36.00
2012,03,12,09,04,32.30
2012,03,12,09,05,30.20
2012,03,12,09,06,34.00
2012,03,12,09,07,35.60
2012,03,12,09,08,35.20
2012,03,12,09,09,39.50
2012,03,12,09,10,39.80
2012,03,12,09,11,42.80
2012,03,12,09,12,35.90
2012,03,12,09,13,40.00
2012,03,12,09,14,50.10
2012,03,12,09,15,44.70
2012,03,12,09,16,32.00
2012,03,12,09,17,32.00
2012,03,12,09,18,42.40
2012,03,12,09,19,41.00
2012,03,12,09,20,32.90
2012,03,12,09,21,33.90
2012,03,12,09,22,38.10
2012,03,12,09,23,34.20
2012,03,12,09,24,44.40
2012,03,12,09,25,38.30
2012,03,12,09,26,43.10
2012,03,12,09,27,38.30
2012,03,12,09,28,37.30
2012,03,12,09,29,35.10
2012,03,12,09,30,42.30
2012,03,12,09,31,29.60
2012,03,12,09,32,29.70
2012,03,12,09,33,39.30
2012,03,12,09,34,35.30
2012,03,12,09,35,39.50
2012,03,12,09,36,35.90
2012,03,12,09,37,40.60
2012,03,12,09,38,29.80
2012,03,12,09,39,39.80
2012,03,12,09,40,39.60
2012,03,12,09,41,49.60
2012,03,12,09,42,39.20
2012,03,12,09,43,39.20
2012,03,12,09,44,43.00
2012,03,12,09,45,32.60
2012,03,12,09,46,37.90
2012,03,12,09,47,37.70
2012,03,12,09,48,37.30
2012,03,12,09,49,29.10
2012,03,12,09,50,30.10
2012,03,12,09,51,36.30
2012,03,12,09,52,26.80
2012,03,12,09,53,33.20
2012,03,12,09,54,30.70
2012,03,12,09,55,19.00
2012,03,12,09,56,29.40
2012,03,12,09,57,34.80
2012,03,12,09,58,19.40
2012,03,12,09,59,29.90
2012,03,12,10,00,29.20
2012,03,12,10,01,29.10
2012,03,12,10,02,21.20
2012,03,12,10,03,28.00
2012,03,12,10,04,36.30
2012,03,12,10,05,34.50
2012,03,12,10,06,35.20
2012,03,12,10,07,35.70
2012,03,12,10,08,27.80
2012,03,12,10,09,23.50
2012,03,12,10,10,33.30
2012,03,12,10,11,28.50
2012,03,12,10,12,26.40
2012,03,12,10,13,29.70
2012,03,12,10,14,26.50
2012,03,12,10,15,31.00
2012,03,12,10,16,23.50
2012,03,12,10,17,30.20
2012,03,12,10,18,30.70
2012,03,12,10,19,25.30
2012,03,12,10,20,25.30
2012,03,12,10,21,31.90
2012,03,12,10,22,30.80
2012,03,12,10,23,28.10
2012,03,12,10,24,24.10
2012,03,12,10,25,27.80
2012,03,12,10,26,28.90
2012,03,12,10,27,27.60
2012,03,12,10,28,27.50
2012,03,12,10,29,23.60
2012,03,12,10,30,29.20
2012,03,12,10,31,25.70
2012,03,12,10,32,13.70
2012,03,12,10,33,17.90
2012,03,12,10,34,36.20
2012,03,12,10,35,24.30
2012,03,12,10,36,16.30
2012,03,12,10,37,15.60
2012,03,12,10,38,19.90
2012,03,12,10,39,25.50
2012,03,12,10,40,27.50
2012,03,12,10,41,27.80
2012,03,12,10,42,27.40
2012,03,12,10,43,18.20
2012,03,12,10,44,14.70
2012,03,12,10,45,21.30
2012,03,12,10,46,25.80
2012,03,12,10,47,22.70
2012,03,12,10,48,26.10
2012,03,12,10,49,25.20
2012,03,12,10,50,19.50
2012,03,12,10,51,17.30
2012,03,12,10,52,24.90
2012,03,12,10,53,17.10
2012,03,12,10,54,16.00
2012,03,12,10,55,15.40
2012,03,12,10,56,15.10
2012,03,12,10,57,15.10
2012,03,12,10,58,15.50
2012,03,12,10,59,22.20
2012,03,12,11,00,20.00
2012,03,12,11,01,14.20
2012,03,12,11,02,20.10
2012,03,12,11,03,18.70
2012,03,12,11,04,18.40
2012,03,12,11,05,16.60
2012,03,12,11,06,12.20
2012,03,12,11,07,16.60
2012,03,12,11,08,20.10
2012,03,12,11,09,18.10
2012,03,12,11,10,16.50
2012,03,12,11,11,16.80
2012,03,12,11,12,12.40
2012,03,12,11,13,23.00
2012,03,12,11,14,23.70
2012,03,12,11,15,17.40
2012,03,12,11,16,26.70
2012,03,12,11,17,15.00
2012,03,12,11,18,24.30
2012,03,12,11,19,18.20
2012,03,12,11,20,17.00
2012,03,12,11,21,13.70
2012,03,12,11,22,15.20
2012,03,12,11,23,17.10
2012,03,12,11,24,19.20
2012,03,12,11,25,22.60
2012,03,12,11,26,22.20
2012,03,12,11,27,23.20
2012,03,12,11,28,22.30
2012,03,12,11,29,13.30
2012,03,12,11,30,19.90
2012,03,12,11,31,18.90
2012,03,12,11,32,23.30
2012,03,12,11,33,14.60
2012,03,12,11,34,23.40
2012,03,12,11,35,17.80
2012,03,12,11,36,11.10
2012,03,12,11,37,20.00
2012,03,12,11,38,13.20
2012,03,12,11,39,12.90
2012,03,12,11,40,14.30
2012,03,12,11,41,14.30
2012,03,12,11,42,21.90
2012,03,12,11,43,20.80
2012,03,12,11,44,18.20
2012,03,12,11,45,16.20
2012,03,12,11,46,14.40
2012,03,12,11,47,19.80
2012,03,12,11,48,20.90
2012,03,12,11,49,11.30
2012,03,12,11,50,11.30
2012,03,12,11,51,16.70
2012,03,12,11,52,14.50
2012,03,12,11,53,13.60
2012,03,12,11,54,15.50
2012,03,12,11,55,13.00
2012,03,12,11,56,18.10
2012,03,12,11,57,18.90
2012,03,12,11,58,14.90
2012,03,12,11,59,7.50
2012,03,12,12,00,11.30
2012,03,12,12,01,11.00
2012,03,12,12,02,9.70
2012,03,12,12,03,16.80
2012,03,12,12,04,13.70
2012,03,12,12,05,16.70
2012,03,12,12,06,18.20
2012,03,12,12,07,18.20
2012,03,12,12,08,19.90
2012,03,12,12,09,18.50
2012,03,12,12,10,11.80
2012,03,12,12,11,13.80
2012,03,12,12,12,9.70
2012,03,12,12,13,7.50
2012,03,12,12,14,10.00
2012,03,12,12,15,10.70
2012,03,12,12,16,10.50
2012,03,12,12,17,9.30
2012,03,12,12,18,10.70
2012,03,12,12,19,10.90
2012,03,12,12,20,11.60
2012,03,12,12,21,2.30
2012,03,12,12,22,10.50
2012,03,12,12,23,9.90
2012,03,12,12,24,7.20
2012,03,12,12,25,7.80
2012,03,12,12,26,11.90
2012,03,12,12,27,4.90
2012,03,12,12,28,1.20
2012,03,12,12,29,9.80
2012,03,12,12,30,7.10
2012,03,12,12,31,3.70
2012,03,12,12,32,7.20
2012,03,12,12,33,8.10
2012,03,12,12,34,10.90
2012,03,12,12,35,6.00
2012,03,12,12,36,4.20
2012,03,12,12,37,2.40
2012,03,12,12,38,0.60
2012,03,12,12,39,2.10
2012,03,12,12,40,3.60
2012,03,12,12,41,1.00
2012,03,12,12,42,0.80
2012,03,12,12,43,0.30
2012,03,12,12,44,1.80
2012,03,12,12,45,8.50
2012,03,12,12,46,1.40
2012,03,12,12,47,1.40
2012,03,12,12,48,2.40
2012,03,12,12,49,6.10
2012,03,12,12,50,2.60
2012,03,12,12,51,2.60
2012,03,12,12,52,3.10
2012,03,12,12,53,6.10
2012,03,12,12,54,7.30
2012,03,12,12,55,4.00
2012,03,12,12,56,7.20
2012,03,12,12,57,1.80
2012,03,12,12,58,1.70
2012,03,12,12,59,2.30
2012,03,12,13,00,2.70
2012,03,12,13,01,1.10
2012,03,12,13,02,0.00
2012,03,12,13,03,1.30
2012,03,12,13,04,1.20
2012,03,12,13,05,1.00
2012,03,12,13,06,0.90
2012,03,12,13,07,0.20
2012,03,12,13,08,0.70
2012,03,12,13,09,0.30
2012,03,12,13,10,0.00
2012,03,12,13,11,0.80
2012,03,12,13,12,0.00
2012,03,12,13,13,0.60
2012,03,12,13,14,0.00
2012,03,12,13,15,0.10
2012,03,12,13,16,0.00
2012,03,12,13,17,0.10
2012,03,12,13,18,0.20
2012,03,12,13,19,0.20
2012,03,12,13,20,0.20
2012,03,12,13,21,3.50
2012,03,12,13,22,0.10
2012,03,12,13,23,0.00
2012,03,12,13,24,0.00
2012,03,12,13,25,0.20
2012,03,12,13,26,0.70
2012,03,12,13,27,0.20
2012,03,12,13,28,0.00
2012,03,12,13,29,0.20
2012,03,12,13,30,0.00
2012,03,12,13,31,0.00
2012,03,12,13,32,0.50
2012,03,12,13,33,0.20
2012,03,12,13,34,1.10
2012,03,12,13,35,0.30
2012,03,12,13,36,0.00
2012,03,12,13,37,0.00
2012,03,12,13,38,0.10
2012,03,12,13,39,1.40
2012,03,12,13,40,5.90
2012,03,12,13,41,5.80
2012,03,12,13,42,4.00
2012,03,12,13,43,1.50
2012,03,12,13,44,0.10
2012,03,12,13,45,0.00
2012,03,12,13,46,0.40
2012,03,12,13,47,0.20
2012,03,12,13,48,0.00
2012,03,12,13,49,0.10
2012,03,12,13,50,3.70
2012,03,12,13,51,6.60
2012,03,12,13,52,6.60
2012,03,12,13,53,1.40
2012,03,12,13,54,0.10
2012,03,12,13,55,0.00
2012,03,12,13,56,0.60
2012,03,12,13,57,0.50
2012,03,12,13,58,0.20
2012,03,12,13,59,0.00
2012,03,12,14,00,0.40
2012,03,12,14,01,0.00
2012,03,12,14,02,0.00
2012,03,12,14,03,0.00
2012,03,12,14,04,0.30
2012,03,12,14,05,0.10
2012,03,12,14,06,0.30
2012,03,12,14,07,3.60
2012,03,12,14,08,1.10
2012,03,12,14,09,0.60
2012,03,12,14,10,0.30
2012,03,12,14,11,0.00
2012,03,12,14,12,0.00
2012,03,12,14,13,0.60
2012,03,12,14,14,2.30
2012,03,12,14,15,0.30
2012,03,12,14,16,0.20
2012,03,12,14,17,0.00
2012,03,12,14,18,0.00
2012,03,12,14,19,0.00
2012,03,12,14,20,0.10
2012,03,12,14,21,0.20
2012,03,12,14,22,0.00
2012,03,12,14,23,0.20
2012,03,12,14,24,4.40
2012,03,12,14,25,4.30
2012,03,12,14,26,2.90
2012,03,12,14,27,1.70
2012,03,12,14,28,0.80
2012,03,12,14,29,1.90
2012,03,12,14,30,3.00
2012,03,12,14,31,5.90
2012,03,12,14,32,2.20
2012,03,12,14,33,1.90
2012,03,12,14,34,4.90
2012,03,12,14,35,3.50
2012,03,12,14,36,4.70
2012,03,12,14,37,2.40
2012,03,12,14,38,1.50
2012,03,12,14,39,1.40
2012,03,12,14,40,3.00
2012,03,12,14,41,4.70
2012,03,12,14,42,6.10
2012,03,12,14,43,5.20
2012,03,12,14,44,6.40
2012,03,12,14,45,2.80
2012,03,12,14,46,5.60
2012,03,12,14,47,3.50
2012,03,12,14,48,3.10
2012,03,12,14,49,3.70
2012,03,12,14,50,3.50
2012,03,12,14,51,2.70
2012,03,12,14,52,1.50
2012,03,12,14,53,2.30
2012,03,12,14,54,4.30
2012,03,12,14,55,2.80
2012,03,12,14,56,3.10
2012,03,12,14,57,1.90
2012,03,12,14,58,3.00
2012,03,12,14,59,3.40
2012,03,12,15,00,0.20
2012,03,12,15,01,0.50
2012,03,12,15,02,0.70
2012,03,12,15,03,1.90
2012,03,12,15,04,0.60
2012,03,12,15,05,0.70
2012,03,12,15,06,0.80
2012,03,12,15,07,1.00
2012,03,12,15,08,0.00
2012,03,12,15,09,0.20
2012,03,12,15,10,2.20
2012,03,12,15,11,2.00
2012,03,12,15,12,1.00
2012,03,12,15,13,0.70
2012,03,12,15,14,0.20
2012,03,12,15,15,0.00
2012,03,12,15,16,0.30
2012,03,12,15,17,0.00
2012,03,12,15,18,0.20
2012,03,12,15,19,0.00
2012,03,12,15,20,0.00
2012,03,12,15,21,0.00
2012,03,12,15,22,0.00
2012,03,12,15,23,0.00
2012,03,12,15,24,0.00
2012,03,12,15,25,0.00
2012,03,12,15,26,0.10
2012,03,12,15,27,0.00
2012,03,12,15,28,0.00
2012,03,12,15,29,0.00
2012,03,12,15,30,0.50
2012,03,12,15,31,0.60
2012,03,12,15,32,0.00
2012,03,12,15,33,0.00
2012,03,12,15,34,0.00
2012,03,12,15,35,0.00
2012,03,12,15,36,0.60
2012,03,12,15,37,0.20
2012,03,12,15,38,0.00
2012,03,12,15,39,0.00
2012,03,12,15,40,0.00
2012,03,12,15,41,0.00
2012,03,12,15,42,0.00
2012,03,12,15,43,0.00
2012,03,12,15,44,0.00
2012,03,12,15,45,0.00
2012,03,12,15,46,0.00
2012,03,12,15,47,0.00
2012,03,12,15,48,0.20
2012,03,12,15,49,0.30
2012,03,12,15,50,1.00
2012,03,12,15,51,0.20
2012,03,12,15,52,1.40
2012,03,12,15,53,0.10
2012,03,12,15,54,0.00
2012,03,12,15,55,0.10
2012,03,12,15,56,0.30
2012,03,12,15,57,0.10
2012,03,12,15,58,1.30
2012,03,12,15,59,1.10
2012,03,12,16,00,0.50
2012,03,12,16,01,0.20
2012,03,12,16,02,0.20
2012,03,12,16,03,0.40
2012,03,12,16,04,0.00
2012,03,12,16,05,0.00
2012,03,12,16,06,0.00
2012,03,12,16,07,0.00
2012,03,12,16,08,0.00
2012,03,12,16,09,0.00
2012,03,12,16,10,0.00
2012,03,12,16,11,0.20
2012,03,12,16,12,0.20
2012,03,12,16,13,0.00
2012,03,12,16,14,0.00
2012,03,12,16,15,0.00
2012,03,12,16,16,0.00
2012,03,12,16,17,0.00
2012,03,12,16,18,0.10
2012,03,12,16,19,0.10
2012,03,12,16,20,0.00
2012,03,12,16,21,0.00
2012,03,12,16,22,0.20
2012,03,12,16,23,0.00
2012,03,12,16,24,0.10
2012,03,12,16,25,0.20
2012,03,12,16,26,0.00
2012,03,12,16,27,0.00
2012,03,12,16,28,0.00
2012,03,12,16,29,0.00
2012,03,12,16,30,0.00
2012,03,12,16,31,0.00
2012,03,12,16,32,0.00
2012,03,12,16,33,0.00
2012,03,12,16,34,0.00
2012,03,12,16,35,1.50
2012,03,12,16,36,2.30
2012,03,12,16,37,0.60
2012,03,12,16,38,1.10
2012,03,12,16,39,0.30
2012,03,12,16,40,1.70
2012,03,12,16,41,0.80
2012,03,12,16,42,1.40
2012,03,12,16,43,2.50
2012,03,12,16,44,0.20
2012,03,12,16,45,0.20
2012,03,12,16,46,0.00
2012,03,12,16,47,0.10
2012,03,12,16,48,0.00
2012,03,12,16,49,0.00
2012,03,12,16,50,0.00
2012,03,12,16,51,0.10
2012,03,12,16,52,0.20
2012,03,12,16,53,0.00
2012,03,12,16,54,0.10
2012,03,12,16,55,0.00
2012,03,12,16,56,0.00
2012,03,12,16,57,0.00
2012,03,12,16,58,0.00
2012,03,12,16,59,0.00
2012,03,12,17,00,0.00
2012,03,12,17,01,0.00
2012,03,12,17,02,0.00
2012,03,12,17,03,0.00
2012,03,12,17,04,0.00
2012,03,12,17,05,0.00
2012,03,12,17,06,0.10
2012,03,12,17,07,0.00
2012,03,12,17,08,0.00
2012,03,12,17,09,0.00
2012,03,12,17,10,0.00
2012,03,12,17,11,0.00
2012,03,12,17,12,0.00
2012,03,12,17,13,0.50
2012,03,12,17,14,0.60
2012,03,12,17,15,0.80
2012,03,12,17,16,0.30
2012,03,12,17,17,0.00
2012,03,12,17,18,0.00
2012,03,12,17,19,0.70
2012,03,12,17,20,3.80
2012,03,12,17,21,3.50
2012,03,12,17,22,1.30
2012,03,12,17,23,0.60
2012,03,12,17,24,1.70
2012,03,12,17,25,0.80
2012,03,12,17,26,0.30
2012,03,12,17,27,0.80
2012,03,12,17,28,2.60
2012,03,12,17,29,0.60
2012,03,12,17,30,0.10
2012,03,12,17,31,0.00
2012,03,12,17,32,0.00
2012,03,12,17,33,0.00